Zurück zum Katalog

NATO 4A R/B

PAM-D

AktivGTO
NORAD 21049·ROCKET BODY·🇺🇸 United States

Gestartet Jan 8, 1991 von Cape Canaveral Space Force Station

Loading…

TLE

VeraltetSource: Space-Track

Epoche: Sep 13, 2026, 17:38 UTC

1 21049U 91001C   26256.73488120 -.00000092  00000-0  31191-2 0  9990
2 21049  25.9757 313.5262 7074974 256.9285  24.3212  2.26577476295321

Verfolge NATO 4A R/B in Echtzeit mit AllMySat

Download on the App Store